sat.trackr.live / text

‹ back to catalog

STARLINK-11250 [DTC]

NORAD 60910 · 2024-154H

PAYLOAD ACTIVE UNKNOWN

§ Identity

Operator
Country
US
Launch date
2024-08-31
Launch site
AFETR
Launch vehicle
Mass (kg)
RCS (m²)

Purposes: comms

External: N2YO · Heavens-Above · Gunter

§ Orbital elements

Epoch: 2026-05-25T03:48:54.291744Z

Period
91.74 min
Inclination
53.1588°
Eccentricity
0.0000846
Mean motion
15.69704977 rev/d
Perigee alt
359.2 km
Apogee alt
360.3 km
Semi-major
6,737.9 km
B*
5.6674e-7
RAAN
114.3791°
Arg perigee
78.7294°
Mean anomaly
281.3819°
Rev number
10,052

§ Raw data

STARLINK-11250 [DTC]1 60910U 24154H   26145.15896171 -.00000519  00000+0  56674-6 0  99972 60910  53.1588 114.3791 0000846  78.7294 281.3819 15.69704977100524

JSON: /api/v1/satellites/60910 · /tle

For live sub-satellite position, see the globe view (requires WebGL).

§ Visibility from observer

Set your observer location to see the next 7 days of passes ≥ 10°. The values pass through the URL so the page stays shareable.

No JS? Fill the form by hand. The geolocation button needs JavaScript.